SWA3055 KMKE-KBNA

Flight info

Callsign SWA3055
Flight time 1h 13m
Altitude 37000
Route UECKR6 DELHI TONES RYYMN3
Aircraft B737/M-SADE2E3GIJ4RWZ/LB1D1

Departure

Time 2026-05-05 00:04
Airport General Mitchell International Airport (KMKE)

Arrival

Time 2026-05-05 01:17
Airport Nashville International Airport (KBNA)
Time Latitude Longitude Altitude Speed Heading
2026-05-04 23:18 42.95080 -87.89993 687 ft 0 kts 231°
2026-05-04 23:51 42.95082 -87.89989 687 ft 3 kts 231°
2026-05-04 23:51 42.95096 -87.89967 679 ft 4 kts 217°
2026-05-04 23:51 42.95119 -87.89953 680 ft 4 kts 179°
2026-05-04 23:51 42.95144 -87.89960 682 ft 4 kts 149°
2026-05-04 23:52 42.95161 -87.89978 683 ft 1 kts 133°
2026-05-04 23:52 42.95145 -87.89952 682 ft 4 kts 130°
2026-05-04 23:52 42.95137 -87.89939 682 ft 0 kts 133°
2026-05-04 23:58 42.95134 -87.89936 697 ft 2 kts 134°
2026-05-04 23:58 42.95110 -87.89902 680 ft 6 kts 134°
2026-05-04 23:59 42.95075 -87.89852 687 ft 8 kts 134°
2026-05-04 23:59 42.95058 -87.89790 687 ft 7 kts 75°
2026-05-04 23:59 42.95096 -87.89744 683 ft 9 kts 28°
2026-05-04 23:59 42.95156 -87.89703 687 ft 10 kts 26°
2026-05-05 00:00 42.95220 -87.89660 683 ft 10 kts 26°
2026-05-05 00:00 42.95240 -87.89646 687 ft 10 kts 26°
2026-05-05 00:00 42.95342 -87.89575 685 ft 10 kts 27°
2026-05-05 00:00 42.95399 -87.89534 684 ft 9 kts 27°
2026-05-05 00:01 42.95460 -87.89505 683 ft 9 kts 12°
2026-05-05 00:01 42.95525 -87.89493 685 ft 10 kts
2026-05-05 00:01 42.95597 -87.89480 687 ft 11 kts
2026-05-05 00:01 42.95677 -87.89466 685 ft 12 kts
2026-05-05 00:02 42.95732 -87.89446 687 ft 4 kts 38°
2026-05-05 00:02 42.95734 -87.89444 687 ft 0 kts 43°
2026-05-05 00:02 42.95735 -87.89443 687 ft 1 kts 44°
2026-05-05 00:02 42.95745 -87.89408 685 ft 5 kts 81°
2026-05-05 00:03 42.95747 -87.89355 687 ft 6 kts 94°
2026-05-05 00:03 42.95717 -87.89309 685 ft 10 kts 173°
2026-05-05 00:03 42.95429 -87.89358 687 ft 79 kts 187°
2026-05-05 00:03 42.94654 -87.89497 693 ft 141 kts 188°
2026-05-05 00:04 42.93562 -87.89637 1026 ft 165 kts 188°
2026-05-05 00:04 42.92416 -87.89724 1811 ft 166 kts 189°
2026-05-05 00:04 42.91238 -87.89718 2442 ft 179 kts 182°
2026-05-05 00:04 42.89940 -87.89034 2710 ft 226 kts 148°
2026-05-05 00:05 42.88704 -87.87471 2973 ft 258 kts 140°
2026-05-05 00:05 42.87366 -87.85653 3401 ft 280 kts 139°
2026-05-05 00:05 42.85984 -87.83754 4295 ft 283 kts 139°
2026-05-05 00:05 42.84596 -87.81818 5187 ft 289 kts 139°
2026-05-05 00:06 42.83158 -87.79840 5996 ft 296 kts 143°
2026-05-05 00:06 42.81543 -87.78123 6956 ft 294 kts 149°
2026-05-05 00:06 42.79905 -87.76489 7973 ft 298 kts 149°
2026-05-05 00:06 42.78231 -87.74732 9029 ft 302 kts 147°
2026-05-05 00:07 42.76610 -87.72927 9959 ft 308 kts 146°
2026-05-05 00:07 42.74946 -87.70997 10651 ft 324 kts 145°
2026-05-05 00:07 42.73163 -87.68889 10887 ft 355 kts 144°
2026-05-05 00:07 42.71264 -87.66622 11476 ft 369 kts 144°
2026-05-05 00:08 42.69120 -87.64768 12322 ft 363 kts 165°
2026-05-05 00:08 42.66707 -87.64045 13306 ft 353 kts 182°
2026-05-05 00:08 42.64243 -87.63856 14187 ft 356 kts 184°
2026-05-05 00:08 42.61751 -87.63736 15075 ft 360 kts 185°
2026-05-05 00:09 42.59231 -87.63600 16011 ft 364 kts 184°
2026-05-05 00:09 42.56680 -87.63432 16873 ft 370 kts 184°
2026-05-05 00:09 42.54091 -87.63247 17749 ft 375 kts 184°
2026-05-05 00:09 42.51469 -87.63043 18530 ft 379 kts 184°
2026-05-05 00:10 42.48824 -87.62826 19308 ft 383 kts 184°
2026-05-05 00:10 42.46155 -87.62608 20068 ft 387 kts 184°
2026-05-05 00:10 42.43447 -87.62392 20815 ft 391 kts 185°
2026-05-05 00:10 42.40746 -87.62522 21520 ft 386 kts 195°
2026-05-05 00:11 42.38100 -87.63135 22243 ft 387 kts 198°
2026-05-05 00:11 42.35434 -87.63809 22950 ft 392 kts 197°
2026-05-05 00:11 42.32727 -87.64442 23551 ft 397 kts 197°
2026-05-05 00:11 42.30933 -87.64935 23939 ft 395 kts 203°
2026-05-05 00:12 42.28381 -87.66226 24548 ft 391 kts 209°
2026-05-05 00:12 42.25889 -87.67703 25130 ft 393 kts 210°
2026-05-05 00:12 42.23375 -87.69218 25692 ft 397 kts 210°
2026-05-05 00:12 42.20834 -87.70723 26238 ft 401 kts 209°
2026-05-05 00:13 42.18213 -87.72243 26790 ft 406 kts 209°
2026-05-05 00:13 42.15604 -87.73732 27250 ft 410 kts 208°
2026-05-05 00:13 42.12963 -87.75227 27742 ft 414 kts 208°
2026-05-05 00:13 42.10298 -87.76734 28263 ft 417 kts 208°
2026-05-05 00:14 42.07556 -87.78080 28739 ft 426 kts 198°
2026-05-05 00:14 42.04828 -87.78468 29164 ft 438 kts 186°
2026-05-05 00:14 42.01770 -87.78471 29656 ft 441 kts 185°
2026-05-05 00:14 41.98689 -87.78474 30022 ft 444 kts 186°
2026-05-05 00:15 41.95588 -87.78527 30370 ft 446 kts 186°
2026-05-05 00:15 41.92481 -87.78584 30873 ft 446 kts 185°
2026-05-05 00:15 41.89380 -87.78428 31467 ft 446 kts 182°
2026-05-05 00:15 41.86290 -87.78129 31967 ft 446 kts 181°
2026-05-05 00:16 41.83194 -87.77774 32399 ft 446 kts 180°
2026-05-05 00:16 41.80102 -87.77411 32837 ft 446 kts 181°
2026-05-05 00:16 41.77011 -87.77060 33316 ft 445 kts 181°
2026-05-05 00:16 41.73925 -87.76726 33728 ft 444 kts 181°
2026-05-05 00:17 41.70853 -87.76407 34154 ft 442 kts 181°
2026-05-05 00:17 41.67788 -87.76099 34514 ft 441 kts 181°
2026-05-05 00:17 41.64723 -87.75798 34816 ft 442 kts 181°
2026-05-05 00:17 41.61651 -87.75500 35138 ft 442 kts 181°
2026-05-05 00:18 41.58586 -87.75203 35482 ft 441 kts 181°
2026-05-05 00:18 41.55527 -87.74907 35828 ft 441 kts 181°
2026-05-05 00:18 41.52464 -87.74611 36123 ft 441 kts 181°
2026-05-05 00:18 41.49398 -87.74315 36393 ft 442 kts 181°
2026-05-05 00:19 41.46325 -87.74018 36624 ft 445 kts 181°
2026-05-05 00:19 41.40104 -87.73420 36607 ft 448 kts 181°
2026-05-05 00:20 41.33942 -87.72818 36609 ft 440 kts 181°
2026-05-05 00:20 41.27841 -87.72228 36622 ft 439 kts 181°
2026-05-05 00:21 41.21754 -87.71644 36629 ft 438 kts 181°
2026-05-05 00:21 41.15669 -87.71061 36639 ft 438 kts 181°
2026-05-05 00:22 41.09595 -87.70479 36621 ft 438 kts 181°
2026-05-05 00:22 41.03504 -87.69896 36639 ft 438 kts 181°
2026-05-05 00:23 40.97417 -87.69315 36638 ft 439 kts 181°
2026-05-05 00:23 40.91319 -87.68734 36641 ft 440 kts 181°
2026-05-05 00:24 40.85215 -87.68153 36638 ft 440 kts 181°
2026-05-05 00:24 40.79092 -87.67572 36655 ft 442 kts 181°
2026-05-05 00:25 40.72954 -87.66991 36663 ft 443 kts 181°
2026-05-05 00:25 40.66792 -87.66408 36668 ft 444 kts 181°
2026-05-05 00:26 40.60615 -87.65824 36670 ft 445 kts 181°
2026-05-05 00:26 40.54426 -87.65240 36673 ft 446 kts 181°
2026-05-05 00:27 40.48244 -87.64658 36674 ft 446 kts 181°
2026-05-05 00:27 40.42043 -87.64075 36667 ft 446 kts 181°
2026-05-05 00:28 40.35853 -87.63494 36675 ft 446 kts 181°
2026-05-05 00:28 40.29700 -87.62918 36676 ft 446 kts 181°
2026-05-05 00:29 40.23474 -87.62336 36676 ft 445 kts 181°
2026-05-05 00:29 40.17334 -87.61764 36669 ft 445 kts 181°
2026-05-05 00:30 40.11162 -87.61189 36676 ft 445 kts 181°
2026-05-05 00:30 40.04985 -87.60615 36697 ft 445 kts 181°
2026-05-05 00:31 39.98814 -87.60043 36681 ft 444 kts 182°
2026-05-05 00:31 39.92645 -87.59472 36702 ft 445 kts 182°
2026-05-05 00:32 39.86466 -87.58902 36706 ft 445 kts 182°
2026-05-05 00:32 39.80284 -87.58332 36704 ft 446 kts 182°
2026-05-05 00:33 39.74077 -87.57760 36697 ft 447 kts 182°
2026-05-05 00:33 39.67876 -87.57190 36705 ft 447 kts 182°
2026-05-05 00:34 39.61660 -87.56620 36704 ft 448 kts 182°
2026-05-05 00:34 39.55434 -87.56050 36710 ft 449 kts 182°
2026-05-05 00:35 39.49201 -87.55480 36715 ft 449 kts 182°
2026-05-05 00:35 39.42966 -87.54911 36725 ft 450 kts 182°
2026-05-05 00:36 39.36717 -87.54342 36739 ft 450 kts 182°
2026-05-05 00:36 39.30466 -87.53773 36718 ft 451 kts 181°
2026-05-05 00:37 39.24208 -87.53205 36735 ft 451 kts 181°
2026-05-05 00:37 39.17942 -87.52638 36735 ft 451 kts 181°
2026-05-05 00:38 39.11675 -87.52071 36731 ft 452 kts 181°
2026-05-05 00:38 39.05438 -87.51508 36733 ft 452 kts 181°
2026-05-05 00:39 38.99123 -87.50938 36732 ft 452 kts 181°
2026-05-05 00:39 38.92842 -87.50373 36734 ft 452 kts 181°
2026-05-05 00:40 38.86621 -87.49813 36507 ft 447 kts 181°
2026-05-05 00:40 38.83506 -87.49530 36205 ft 438 kts 181°
2026-05-05 00:40 38.80498 -87.49255 35935 ft 430 kts 181°
2026-05-05 00:40 38.77538 -87.48987 35669 ft 422 kts 182°
2026-05-05 00:41 38.74644 -87.48727 35410 ft 414 kts 182°
2026-05-05 00:41 38.71786 -87.48471 35151 ft 407 kts 182°
2026-05-05 00:41 38.68985 -87.48222 34899 ft 401 kts 182°
2026-05-05 00:41 38.66219 -87.47976 34660 ft 395 kts 182°
2026-05-05 00:42 38.63499 -87.47734 34413 ft 389 kts 182°
2026-05-05 00:42 38.60814 -87.47496 34143 ft 384 kts 182°
2026-05-05 00:42 38.58166 -87.47261 33905 ft 379 kts 182°
2026-05-05 00:42 38.55549 -87.47029 33650 ft 375 kts 182°
2026-05-05 00:43 38.52948 -87.46799 33381 ft 373 kts 182°
2026-05-05 00:43 38.50376 -87.46572 33110 ft 370 kts 182°
2026-05-05 00:43 38.47808 -87.46345 32846 ft 370 kts 182°
2026-05-05 00:43 38.45222 -87.46119 32601 ft 374 kts 182°
2026-05-05 00:44 38.42618 -87.45893 32360 ft 380 kts 182°
2026-05-05 00:44 38.39968 -87.45660 32105 ft 381 kts 182°
2026-05-05 00:44 38.37322 -87.45425 31847 ft 380 kts 181°
2026-05-05 00:44 38.34693 -87.45191 31607 ft 380 kts 181°
2026-05-05 00:45 38.32054 -87.44957 31349 ft 379 kts 181°
2026-05-05 00:45 38.29419 -87.44723 31103 ft 379 kts 181°
2026-05-05 00:45 38.26786 -87.44490 30855 ft 379 kts 181°
2026-05-05 00:45 38.24155 -87.44258 30612 ft 379 kts 181°
2026-05-05 00:46 38.21526 -87.44026 30368 ft 379 kts 181°
2026-05-05 00:46 38.18895 -87.43795 30126 ft 379 kts 181°
2026-05-05 00:46 38.16263 -87.43563 29873 ft 379 kts 181°
2026-05-05 00:46 38.13593 -87.43328 29593 ft 380 kts 182°
2026-05-05 00:47 38.10959 -87.43097 29330 ft 380 kts 182°
2026-05-05 00:47 38.08316 -87.42865 29043 ft 381 kts 182°
2026-05-05 00:47 38.05666 -87.42632 28766 ft 381 kts 182°
2026-05-05 00:47 38.03020 -87.42400 28497 ft 382 kts 182°
2026-05-05 00:48 38.00368 -87.42155 28228 ft 384 kts 179°
2026-05-05 00:48 37.97759 -87.41289 27938 ft 394 kts 162°
2026-05-05 00:48 37.95230 -87.39924 27735 ft 395 kts 161°
2026-05-05 00:48 37.92716 -87.38520 27476 ft 396 kts 161°
2026-05-05 00:49 37.90196 -87.37111 27188 ft 396 kts 161°
2026-05-05 00:49 37.87668 -87.35711 26932 ft 396 kts 161°
2026-05-05 00:49 37.85136 -87.34323 26690 ft 396 kts 161°
2026-05-05 00:49 37.83458 -87.33411 26516 ft 396 kts 162°
2026-05-05 00:50 37.80926 -87.32042 26270 ft 396 kts 162°
2026-05-05 00:50 37.78397 -87.30680 26022 ft 395 kts 162°
2026-05-05 00:50 37.75869 -87.29321 25774 ft 394 kts 162°
2026-05-05 00:50 37.73351 -87.27970 25531 ft 393 kts 162°
2026-05-05 00:51 37.70838 -87.26623 25293 ft 392 kts 162°
2026-05-05 00:51 37.68327 -87.25279 25043 ft 392 kts 162°
2026-05-05 00:51 37.65810 -87.23932 24805 ft 392 kts 161°
2026-05-05 00:51 37.63303 -87.22591 24569 ft 392 kts 161°
2026-05-05 00:52 37.60794 -87.21250 24332 ft 393 kts 161°
2026-05-05 00:52 37.58217 -87.19878 24133 ft 410 kts 161°
2026-05-05 00:52 37.55564 -87.18465 23885 ft 416 kts 160°
2026-05-05 00:52 37.52910 -87.17047 23657 ft 412 kts 160°
2026-05-05 00:53 37.50284 -87.15643 23415 ft 408 kts 160°
2026-05-05 00:53 37.47673 -87.14250 23151 ft 406 kts 160°
2026-05-05 00:53 37.45079 -87.12868 22912 ft 404 kts 161°
2026-05-05 00:53 37.42487 -87.11490 22848 ft 407 kts 160°
2026-05-05 00:54 37.39869 -87.10100 22854 ft 409 kts 160°
2026-05-05 00:54 37.37246 -87.08711 22860 ft 408 kts 161°
2026-05-05 00:54 37.34502 -87.07825 22851 ft 399 kts 180°
2026-05-05 00:54 37.31740 -87.07824 22870 ft 398 kts 185°
2026-05-05 00:55 37.28976 -87.07950 22872 ft 398 kts 186°
2026-05-05 00:55 37.26203 -87.08101 22868 ft 399 kts 186°
2026-05-05 00:55 37.23427 -87.08247 22865 ft 399 kts 186°
2026-05-05 00:55 37.20650 -87.08378 22861 ft 397 kts 186°
2026-05-05 00:56 37.17920 -87.08493 22619 ft 391 kts 186°
2026-05-05 00:56 37.15217 -87.08599 22218 ft 387 kts 186°
2026-05-05 00:56 37.12539 -87.08700 21732 ft 382 kts 186°
2026-05-05 00:56 37.09905 -87.08797 21211 ft 377 kts 186°
2026-05-05 00:57 37.07290 -87.08894 20693 ft 374 kts 186°
2026-05-05 00:57 37.04738 -87.08988 20185 ft 370 kts 186°
2026-05-05 00:57 37.02140 -87.09085 19670 ft 367 kts 186°
2026-05-05 00:57 36.99598 -87.09180 19163 ft 364 kts 186°
2026-05-05 00:58 36.97106 -87.09272 18649 ft 362 kts 186°
2026-05-05 00:58 36.94555 -87.09368 18094 ft 361 kts 186°
2026-05-05 00:58 36.92051 -87.09461 17527 ft 358 kts 186°
2026-05-05 00:58 36.89574 -87.09552 17001 ft 354 kts 186°
2026-05-05 00:59 36.87123 -87.09642 16487 ft 351 kts 186°
2026-05-05 00:59 36.84701 -87.09732 15980 ft 348 kts 186°
2026-05-05 00:59 36.82286 -87.09735 15463 ft 348 kts 178°
2026-05-05 00:59 36.79960 -87.08845 14977 ft 353 kts 159°
2026-05-05 01:00 36.77763 -87.07503 14490 ft 351 kts 157°
2026-05-05 01:00 36.75600 -87.06122 14009 ft 348 kts 157°
2026-05-05 01:00 36.73482 -87.04778 13897 ft 334 kts 158°
2026-05-05 01:00 36.71406 -87.03492 13059 ft 335 kts 158°
2026-05-05 01:01 36.69330 -87.02218 12481 ft 330 kts 158°
2026-05-05 01:01 36.67279 -87.00957 11985 ft 328 kts 158°
2026-05-05 01:01 36.65236 -86.99705 11514 ft 325 kts 158°
2026-05-05 01:01 36.63215 -86.98472 11059 ft 322 kts 158°
2026-05-05 01:02 36.61344 -86.96938 10586 ft 328 kts 138°
2026-05-05 01:02 36.60079 -86.94580 10161 ft 332 kts 116°
2026-05-05 01:02 36.59282 -86.91889 9776 ft 329 kts 112°
2026-05-05 01:02 36.58585 -86.89276 9785 ft 310 kts 111°
2026-05-05 01:03 36.57921 -86.86781 9648 ft 298 kts 112°
2026-05-05 01:03 36.57262 -86.84362 9328 ft 294 kts 112°
2026-05-05 01:03 36.56596 -86.81963 8980 ft 292 kts 113°
2026-05-05 01:03 36.55941 -86.79627 8881 ft 280 kts 114°
2026-05-05 01:04 36.55319 -86.77410 8733 ft 265 kts 114°
2026-05-05 01:04 36.53961 -86.73329 8153 ft 248 kts 124°
2026-05-05 01:04 36.53139 -86.71455 7784 ft 245 kts 125°
2026-05-05 01:05 36.52322 -86.69609 7424 ft 243 kts 125°
2026-05-05 01:05 36.51524 -86.67784 7249 ft 233 kts 125°
2026-05-05 01:05 36.50779 -86.66061 7093 ft 222 kts 125°
2026-05-05 01:05 36.50054 -86.64380 7048 ft 223 kts 125°
2026-05-05 01:06 36.49322 -86.62679 7018 ft 222 kts 125°
2026-05-05 01:06 36.48613 -86.61021 7005 ft 213 kts 125°
2026-05-05 01:06 36.47921 -86.59405 6740 ft 211 kts 126°
2026-05-05 01:06 36.47247 -86.57830 6612 ft 201 kts 126°
2026-05-05 01:07 36.46549 -86.56406 6488 ft 183 kts 140°
2026-05-05 01:07 36.45841 -86.55127 6369 ft 178 kts 130°
2026-05-05 01:07 36.45255 -86.53767 6082 ft 179 kts 126°
2026-05-05 01:07 36.44576 -86.52527 5794 ft 168 kts 147°
2026-05-05 01:08 36.43585 -86.52000 5471 ft 151 kts 190°
2026-05-05 01:08 36.42612 -86.52360 5204 ft 145 kts 205°
2026-05-05 01:08 36.41691 -86.52871 4917 ft 144 kts 211°
2026-05-05 01:08 36.40943 -86.53565 4975 ft 130 kts 219°
2026-05-05 01:09 36.40224 -86.54302 4987 ft 137 kts 219°
2026-05-05 01:09 36.39478 -86.55073 4995 ft 142 kts 219°
2026-05-05 01:09 36.38671 -86.55790 4982 ft 142 kts 215°
2026-05-05 01:09 36.37858 -86.56474 4970 ft 141 kts 214°
2026-05-05 01:10 36.37052 -86.57149 4987 ft 139 kts 215°
2026-05-05 01:10 36.36248 -86.57808 4983 ft 139 kts 215°
2026-05-05 01:10 36.35433 -86.58471 4975 ft 140 kts 214°
2026-05-05 01:10 36.34628 -86.59131 4816 ft 138 kts 214°
2026-05-05 01:11 36.33813 -86.59728 4631 ft 134 kts 208°
2026-05-05 01:11 36.32941 -86.60197 4454 ft 138 kts 205°
2026-05-05 01:11 36.32029 -86.60619 4273 ft 142 kts 202°
2026-05-05 01:11 36.31092 -86.61018 4087 ft 142 kts 201°
2026-05-05 01:12 36.30153 -86.61400 3889 ft 141 kts 201°
2026-05-05 01:12 36.29269 -86.61752 3715 ft 126 kts 202°
2026-05-05 01:12 36.28461 -86.62071 3552 ft 123 kts 201°
2026-05-05 01:12 36.27643 -86.62396 3397 ft 125 kts 201°
2026-05-05 01:13 36.26818 -86.62721 3236 ft 125 kts 201°
2026-05-05 01:13 36.25990 -86.63048 3075 ft 124 kts 201°
2026-05-05 01:13 36.25173 -86.63369 2906 ft 123 kts 202°
2026-05-05 01:13 36.24353 -86.63693 2748 ft 124 kts 201°
2026-05-05 01:14 36.23531 -86.64017 2581 ft 125 kts 201°
2026-05-05 01:14 36.22705 -86.64341 2421 ft 123 kts 201°
2026-05-05 01:14 36.21889 -86.64663 2257 ft 126 kts 201°
2026-05-05 01:14 36.21039 -86.64999 2094 ft 130 kts 200°
2026-05-05 01:15 36.20187 -86.65337 1903 ft 123 kts 199°
2026-05-05 01:15 36.19385 -86.65651 1733 ft 119 kts 200°
2026-05-05 01:15 36.18583 -86.65969 1597 ft 122 kts 200°
2026-05-05 01:15 36.17753 -86.66300 1433 ft 128 kts 199°
2026-05-05 01:16 36.16882 -86.66649 1264 ft 133 kts 197°
2026-05-05 01:16 36.15986 -86.66990 1087 ft 134 kts 199°
2026-05-05 01:16 36.15082 -86.67343 897 ft 137 kts 199°
2026-05-05 01:16 36.14186 -86.67698 702 ft 133 kts 199°
2026-05-05 01:17 36.13331 -86.68034 579 ft 121 kts 200°
2026-05-05 01:17 36.12649 -86.68306 574 ft 82 kts 197°
2026-05-05 01:17 36.12246 -86.68460 573 ft 39 kts 198°
2026-05-05 01:17 36.12054 -86.68538 573 ft 27 kts 198°
2026-05-05 01:18 36.11882 -86.68604 575 ft 25 kts 195°
2026-05-05 01:18 36.11772 -86.68612 576 ft 12 kts 129°
2026-05-05 01:18 36.11747 -86.68517 579 ft 11 kts 106°
2026-05-05 01:18 36.11737 -86.68450 581 ft 5 kts 70°
2026-05-05 01:19 36.11770 -86.68425 581 ft 8 kts 19°
2026-05-05 01:19 36.11833 -86.68404 581 ft 11 kts 15°
2026-05-05 01:19 36.11919 -86.68372 578 ft 17 kts 17°
2026-05-05 01:19 36.12045 -86.68327 574 ft 20 kts 17°
2026-05-05 01:20 36.12178 -86.68279 574 ft 20 kts 14°
2026-05-05 01:20 36.12308 -86.68234 572 ft 19 kts 17°
2026-05-05 01:20 36.12436 -86.68187 573 ft 19 kts 16°
2026-05-05 01:20 36.12558 -86.68143 575 ft 18 kts 16°
2026-05-05 01:21 36.12678 -86.68100 573 ft 18 kts 16°
2026-05-05 01:21 36.12793 -86.68059 578 ft 17 kts 17°
2026-05-05 01:21 36.12904 -86.68017 574 ft 17 kts 18°
2026-05-05 01:21 36.13034 -86.67965 572 ft 21 kts 17°
2026-05-05 01:22 36.13068 -86.67892 578 ft 10 kts 128°
2026-05-05 01:22 36.13013 -86.67819 572 ft 13 kts 134°
2026-05-05 01:22 36.12930 -86.67712 570 ft 21 kts 134°
2026-05-05 01:22 36.12830 -86.67581 574 ft 21 kts 133°
2026-05-05 01:23 36.12738 -86.67459 573 ft 17 kts 121°
2026-05-05 01:23 36.12792 -86.67344 575 ft 17 kts 39°
2026-05-05 01:23 36.12855 -86.67232 574 ft 17 kts 114°
2026-05-05 01:23 36.12780 -86.67122 568 ft 17 kts 131°
2026-05-05 01:24 36.12705 -86.67017 568 ft 16 kts 131°
2026-05-05 01:24 36.12636 -86.66916 571 ft 14 kts 123°
2026-05-05 01:24 36.12660 -86.66829 574 ft 10 kts 40°
2026-05-05 01:24 36.12713 -86.66775 568 ft 11 kts 38°
2026-05-05 01:25 36.12777 -86.66734 568 ft 10 kts 22°
2026-05-05 01:25 36.12797 -86.66670 571 ft 3 kts 91°
2026-05-05 01:25 36.12796 -86.66651 569 ft 0 kts 92°
2026-05-05 01:32 36.12796 -86.66653 568 ft 1 kts 94°
2026-05-05 01:32 36.12796 -86.66652 555 ft 0 kts 91°
2026-05-05 01:32 36.12797 -86.66651 556 ft 3 kts 89°
2026-05-05 01:32 36.12798 -86.66650 570 ft 0 kts 94°
2026-05-05 01:33 36.12797 -86.66649 569 ft 0 kts 94°